Location: Karlsruhe
(49.0131°N, 8.3874°E)
Time: 04:48:34
(UTC+01:00)

N. Korean satellite - Visible Passes

Search period start: 23 November 2017 00:00
Search period end: 03 December 2017 00:00
Orbit: 460 x 514 km, 97.2° (Epoch: 22 November)

Date Brightness Start Highest point End Pass type
(mag) Time Alt. Az. Time Alt. Az. Time Alt. Az.
23 Nov 6.4 18:08:14 10° SSE 18:11:45 68° ENE 18:15:22 10° N visible
23 Nov 10.2 19:45:15 10° W 19:45:45 10° W 19:46:15 10° W visible
24 Nov 7.7 07:04:49 10° NNE 07:08:31 52° E 07:12:11 10° S visible
24 Nov 7.1 17:45:04 10° SE 17:48:20 36° ENE 17:51:42 10° N visible
24 Nov 9.4 19:19:28 10° SW 19:22:01 18° W 19:24:36 10° NW visible
25 Nov 9.0 06:41:37 10° NNE 06:44:56 29° E 06:48:14 10° SSE visible
25 Nov 7.8 17:22:16 10° ESE 17:25:00 21° ENE 17:27:47 10° NNE visible
25 Nov 8.4 18:55:06 10° SSW 18:58:21 33° W 19:01:39 10° NNW visible
26 Nov 9.8 06:18:46 10° NE 06:21:15 17° E 06:23:44 10° SE visible
26 Nov 7.0 18:31:14 10° S 18:34:45 63° W 18:38:23 10° NNW visible
27 Nov 6.4 18:07:42 10° SSE 18:11:15 68° ENE 18:14:54 10° N visible
27 Nov 10.1 19:44:30 10° W 19:45:15 10° W 19:45:59 10° WNW visible
28 Nov 7.7 07:04:19 10° NNE 07:08:01 52° E 07:11:42 10° S visible
28 Nov 7.1 17:44:30 10° SE 17:47:49 36° ENE 17:51:12 10° N visible
28 Nov 9.4 19:18:53 10° SW 19:21:29 19° W 19:24:08 10° NW visible
29 Nov 9.0 06:41:06 10° NNE 06:44:25 29° E 06:47:43 10° SSE visible
29 Nov 7.8 17:21:41 10° ESE 17:24:28 21° ENE 17:27:17 10° NNE visible
29 Nov 8.3 18:54:30 10° SSW 18:57:48 33° W 19:01:10 10° NNW visible
30 Nov 9.8 06:18:14 10° NE 06:20:43 17° E 06:23:11 10° SE visible
30 Nov 7.0 18:30:37 10° S 18:34:12 64° W 18:37:52 10° NNW visible
01 Dec 6.5 18:07:05 10° SSE 18:10:40 67° ENE 18:14:21 10° N visible
01 Dec 10.1 19:43:43 10° WSW 19:44:39 11° W 19:45:35 10° WNW visible
02 Dec 7.7 07:03:45 10° NNE 07:07:28 52° E 07:11:07 10° S visible
02 Dec 7.1 17:43:52 10° SE 17:47:13 36° ENE 17:50:38 10° N visible
02 Dec 9.4 19:18:13 10° SW 19:20:52 19° W 19:23:35 10° NW visible
